This is the latest recevied weather packets stored in our database for station/object DO1MIT-10. If no packets are shown the sender has not sent any weather packets the latest 1 day(s).
| Time | Temp. | Humidity | Pressure | Rain* | Wind** | Luminosity | Snow |
|---|---|---|---|---|---|---|---|
| 1777788288 | 17.22° C | 52% | 1018 hPa | - | - | - | - |
| 1777787388 | 16.11° C | 53% | 1018 hPa | - | - | - | - |
| 1777786488 | 15° C | 54% | 1018 hPa | - | - | - | - |
| 1777785588 | 13.89° C | 55% | 1018.1 hPa | - | - | - | - |
| 1777784688 | 13.33° C | 56% | 1018 hPa | - | - | - | - |
| 1777783788 | 12.78° C | 56% | 1018 hPa | - | - | - | - |
| 1777782887 | 12.22° C | 56% | 1018 hPa | - | - | - | - |
| 1777781987 | 11.67° C | 57% | 1018 hPa | - | - | - | - |
| 1777781087 | 11.11° C | 57% | 1018 hPa | - | - | - | - |
| 1777780187 | 11.11° C | 57% | 1017.9 hPa | - | - | - | - |
| 1777779287 | 11.11° C | 56% | 1018 hPa | - | - | - | - |
| 1777778387 | 11.67° C | 56% | 1017.9 hPa | - | - | - | - |
| 1777777487 | 11.67° C | 57% | 1017.9 hPa | - | - | - | - |
| 1777776587 | 11.67° C | 56% | 1018 hPa | - | - | - | - |
| 1777775687 | 11.67° C | 57% | 1018.1 hPa | - | - | - | - |
| 1777774787 | 11.67° C | 57% | 1018.1 hPa | - | - | - | - |
| 1777773886 | 11.67° C | 57% | 1018.2 hPa | - | - | - | - |
| 1777772986 | 11.67° C | 57% | 1018.3 hPa | - | - | - | - |
| 1777772086 | 11.67° C | 57% | 1018.3 hPa | - | - | - | - |
| 1777771186 | 11.67° C | 58% | 1018.3 hPa | - | - | - | - |
| 1777770286 | 11.67° C | 58% | 1018.4 hPa | - | - | - | - |
| 1777769386 | 12.22° C | 58% | 1018.6 hPa | - | - | - | - |
| 1777768486 | 12.22° C | 57% | 1018.8 hPa | - | - | - | - |
| 1777767586 | 12.22° C | 58% | 1018.8 hPa | - | - | - | - |
| 1777766686 | 12.22° C | 58% | 1018.8 hPa | - | - | - | - |
* Rain since midnight (hover to see other rain measurements)
** Current wind speed in m/s (hover to see current wind gust speed)